Regional Weather Roundup
Issued by NWS Newport/Morehead, NC

Current Version | Previous Version | Graphics & Text | Print | Product List | Glossary Off
Versions: 1 2 3 4 5 6 7 8 9 10 11 12 13 14 15 16 17 18 19 20 21 22 23 24 25 26 27 28 29 30 31 32 33 34 35 36 37 38 39 40 41 42 43 44 45 46 47 48 49 50

000
ASUS42 KMHX 300010
RWRMHX
WEATHER ROUNDUP FOR EASTERN NORTH CAROLINA
NATIONAL WEATHER SERVICE NEWPORT/MOREHEAD CITY NC
800 PM EDT WED OCT 29 2014

NOTE: "FAIR" INDICATES FEW OR NO CLOUDS BELOW 12,000 FEET
WITH NO SIGNIFICANT WEATHER AND/OR OBSTRUCTIONS TO VISIBILITY

NCZ015>017-031-032-045>047-102-103-300100-
NORTH COAST

CITY           SKY/WX    TMP DP  RH WIND       PRES   REMARKS
EDENTON        PTCLDY    64  59  83 CALM      29.93S
ELIZABETH CITY MOCLDY    65  57  75 CALM      29.93R
KITTY HAWK     CLOUDY    69  64  83 S3        29.92S
MANTEO         CLOUDY    67  64  89 S8        29.94S

$$

NCZ045>047-081-094-103-104-300100-
CENTRAL COAST

CITY           SKY/WX    TMP DP  RH WIND       PRES   REMARKS
FRISCO         MOCLDY    71  67  87 SW8       29.95R
SWANQUARTER      N/A     70 N/A N/A S9        29.91S

$$

NCZ095-097-098-100-101-300100-
SOUTHERN COAST

CITY           SKY/WX    TMP DP  RH WIND       PRES   REMARKS
BEAUFORT       PTCLDY    70  67  90 SW10      29.95R
CEDAR ISLAND     N/A     70 N/A N/A S3G9      29.97S
JACKSONVILLE   MOCLDY    69  63  81 SW7       29.94R
PINEY ISLAND   MOCLDY    70  64  81 S7        29.95R
WILMINGTON     PTCLDY    70  64  81 S9        29.95R


$$

NCZ011>013-027>030-043-044-078>080-089-090>093-098-300100-
COASTAL PLAIN

CITY           SKY/WX    TMP DP  RH WIND       PRES   REMARKS
AHOSKIE        NOT AVBL
CLINTON        CLOUDY    70  60  70 CALM      29.94R
ELIZABETHTOWN  CLOUDY    71  60  69 S3        29.94S
GOLDSBORO      FAIR      70  62  76 CALM      29.91S
GREENVILLE     PTCLDY    63  61  94 CALM      29.95S
HAVELOCK       MOCLDY    69  64  84 S6        29.95S
KENANSVILLE    MOCLDY    65  59  80 CALM      29.95R
KINSTON        PTCLDY    64  59  82 CALM      29.94R
NEW BERN       MOCLDY    70  62  76 S5        29.95R
RICHLANDS      MOCLDY    66  59  77 S5        29.95R
ROCKY MOUNT    LGT RAIN  64  60  87 NW10      29.97R FOG
WASHINGTON     PTCLDY    65  59  80 CALM      29.94R
WHITEVILLE     MOCLDY    70  64  82 S5        29.94S

$$

AMZ130-135-150-152-154-156-158-170-250-252-270-ANZ085-086-088-633-658-670-300100-
MARINE OBSERVATIONS

STATION/POSITION TIME  TEMP    WIND        PRES    WAVE   SWELL
                       AIR SEA DIR/SP/G            HT/PER HT/PER
                 (UTC) (F)     (DEG/KT/KT) (MB)    (FT/S) (FT/S)
CHESAPEAKE LIGHT 2300   68     340/ 17/ 20 1013.7
64 E VA BEACH    0000   69 67  200/ 10/ 12 1013.0    3/ 6   2/ 6
DUCK             0000   71 68  200/  5/  7 1012.7
2 E DUCK         NOT AVBL
10 NE DUCK       0000      68                N/A     3/ 7
OREGON INLET     0000   69 69  200/ 11/ 12 1013.6
13E OREGON INLT  0000      70                N/A     4/ 7
HATTERAS CG      0000   73 72  220/  7/ 10 1014.5
DIAMOND BUOY     0000   76     210/ 16/ 19 1014.2    4/ 5
17 S OCRACOKE    2300          VRB 16/ 19  1014.3
CAPE LOOKOUT     2300   72     210/  8/ 10 1014.2
BEAUFORT LAB     0000   71 71  230/  5/  7 1013.6
30 SE NEW RIVER  0000   74 74  230/ 14/ 17 1014.0    3/ 5
5 SE WRIGHTSVLE  2300   69 70  170/  2/  2   N/A
225 S CAPE HAT   NOT AVBL
41 SE CHARLESTON 0000   76 77  210/ 12/ 14 1015.1    2/ 4   2/ 9

$$



USA.gov is the U.S. government's official web portal to all federal, state and local government web resources and services.